Regional Weather Roundup
Issued by NWS Albany, NY

Home | Current Version | Previous Version | Graphics & Text | Print | Product List | Glossary Off
Versions: 1 2 3 4 5 6 7 8 9 10 11 12 13 14 15 16 17 18 19 20 21 22 23 24 25 26 27 28 29 30 31 32 33 34 35 36 37 38 39 40 41 42 43 44 45 46 47 48 49 50

972
ASUS41 KALY 030110
RWRALY

NEW YORK STATE HOURLY WEATHER ROUNDUP
NATIONAL WEATHER SERVICE ALBANY NY
900 PM EDT MON MAY 02 2016

NOTE: "FAIR" INDICATES FEW OR NO CLOUDS BELOW 12,000 FEET WITH NO
SIGNIFICANT WEATHER AND/OR NO OBSTRUCTIONS TO VISIBILITY.

NYZ032-033-038>043-046>054-057>066-NYZ062>081-082-084-030200-
EAST


CITY           SKY/WX    TMP DP  RH WIND       PRES   REMARKS
ALBANY         DRIZZLE   52  48  86 W5        29.95R
GLENS FALLS    CLOUDY    49  46  90 CALM      29.94S
POUGHKEEPSIE   MOCLDY    55  50  83 N6        29.92R
NEWBURGH       PTCLDY    54  52  94 W6        29.92F
MONTGOMERY     CLOUDY    52  49  89 S6        29.91S
WHITE PLAINS   CLOUDY    52  49  89 CALM      29.92S
ISLIP          CLOUDY    51  48  89 CALM      29.93S
NEW YORK CITY  MOCLDY    58  50  75 S6        29.91F
CENTRAL PARK   CLEAR     56  51  84 CALM      29.94F
$$

NYZ005>009-017-018-044>046-055-056-030200-
CENTRAL


CITY           SKY/WX    TMP DP  RH WIND       PRES   REMARKS
FULTON         CLOUDY    47  43  86 W6        30.02R
SYRACUSE       CLOUDY    47  43  86 NW9       30.00R
ROME           CLOUDY    48  46  93 W8        29.99R
ELMIRA         CLOUDY    47  41  80 N8        29.98R
BINGHAMTON     CLOUDY    45  41  86 N7        29.96R
MONTICELLO     PTCLDY    48  46  93 NW7       29.94F
$$

NYZ026>034-041>043-087-030200-
NORTH


CITY           SKY/WX    TMP DP  RH WIND       PRES   REMARKS
WATERTOWN      CLOUDY    46  43  89 CALM      30.01R
FORT DRUM      NOT AVBL
MASSENA        CLOUDY    46  41  82 N6        30.01S
SARANAC LAKE   CLOUDY    41  39  93 N3        29.93S
PLATTSBURGH    NOT AVBL
$$

NYZ001>004-010>016-019>021-085-030200-
WEST


CITY           SKY/WX    TMP DP  RH WIND       PRES   REMARKS
NIAGARA FALLS  CLOUDY    48  39  71 E5        29.98F
BUFFALO        CLOUDY    47  40  76 E5        29.98F
DUNKIRK        CLOUDY    45  41  86 E3        29.98F
JAMESTOWN      CLOUDY    45  39  81 NE7       29.95F
WELLSVILLE     CLOUDY    46  43  89 NE5       29.96F
ROCHESTER      CLOUDY    48  41  76 E5        29.99F
PENN YAN       CLOUDY    46  42  86 CALM      29.99S
$$

             KEY
       WCI = WIND CHILL INDEX
       VSB = VISIBILITY
       HX  = HEAT INDEX
$$




USA.gov is the U.S. government's official web portal to all federal, state and local government web resources and services.